{"data":{"norad_id":58382,"intl_designator":"2023-178J","name":"STARLINK-30927","alt_names":[],"object_type":"PAYLOAD","status":"ACTIVE","operator":null,"country":"US","launch_date":"2023-11-20","launch_site_code":"AFWTR","launch_vehicle":null,"mission":null,"orbit_class":"UNKNOWN","rcs_meters":null,"size_class":null,"mass_kg":null,"dimensions":null,"purposes":["comms"],"wikipedia_slug":null,"has_3d_model":false,"image_url":null,"decayed_at":null,"tle_current":{"epoch":"2026-05-24T22:28:57.563040Z","epoch_age_seconds":87487,"freshness":"FRESH","line1":"1 58382U 23178J   26144.93677735  .00000934  00000+0  38796-4 0  9993","line2":"2 58382  53.1616   6.3153 0001327  96.2004 263.9150 15.34389385141553","mean_motion":15.34389385,"eccentricity":0.0001327,"inclination_deg":53.1616,"raan_deg":6.3153,"arg_perigee_deg":96.2004,"mean_anomaly_deg":263.915,"bstar":3.8796e-5,"rev_number":14155,"period_min":93.848407325889,"perigee_km":461.82700671941,"apogee_km":463.64257409259,"semimajor_km":6840.871790406,"source":"CELESTRAK","updated_at":"2026-05-25T13:38:18.613339Z"}}}